Location: Granada
(37.1830°N, 3.6000°W)
Time: 04:47:34
(UTC+02:00)

Iridium 70 - Visible Passes

Search period start: 26 May 2016 00:00
Search period end: 05 June 2016 00:00
Orbit: 776 x 779 km, 86.4° (Epoch: 25 May)

Date Brightness Start Highest point End Pass type
(mag) Time Alt. Az. Time Alt. Az. Time Alt. Az.
26 May 7.8 00:44:27 10° NW 00:47:33 16° W 00:50:01 12° WSW visible
26 May 6.6 22:29:17 10° NNE 22:33:40 27° E 22:36:23 18° ESE visible
27 May 7.1 00:09:49 10° NNW 00:14:19 30° W 00:16:53 20° SW visible
27 May 7.3 21:57:05 10° NE 21:59:52 14° ENE 22:02:38 10° ESE visible
27 May 6.0 23:35:51 10° N 23:40:58 57° W 23:43:46 26° SSW visible
28 May 5.5 23:02:15 10° N 23:07:29 75° E 23:10:41 24° S visible
29 May 8.2 00:46:24 10° WNW 00:47:27 11° WNW 00:48:28 10° W visible
29 May 6.1 22:29:01 10° NNE 22:33:53 39° E 22:37:36 16° SE visible
30 May 7.7 00:10:28 10° NW 00:14:16 21° W 00:18:03 10° SW visible
30 May 6.9 21:56:15 10° NNE 22:00:10 21° ENE 22:04:03 10° SE visible
30 May 6.7 23:36:11 10° NNW 23:40:59 38° W 23:45:02 14° SSW visible
31 May 5.7 23:02:22 10° N 23:07:35 75° W 23:12:00 14° S visible
01 Jun 5.6 22:28:54 10° N 22:34:03 58° E 22:38:58 11° SSE visible
02 Jun 8.1 00:11:33 10° NW 00:14:10 14° WNW 00:16:48 10° WSW visible
02 Jun 6.4 21:55:48 10° NNE 22:00:24 30° E 22:04:58 10° SE visible
02 Jun 7.4 23:36:40 10° NNW 23:40:57 26° W 23:45:14 10° SW visible
03 Jun 6.3 23:02:35 10° NNW 23:07:37 50° W 23:12:37 10° SSW visible
04 Jun 5.5 22:28:55 10° N 22:34:10 86° E 22:39:23 10° S visible
